DLH077 EDDL-EDDF

Flight info

Callsign DLH077
Flight time 0h 35m
Altitude 21000
Route COL5Z/05R COL T911 ROLIS ROLIS5A
Aircraft A320/M-SDE2E3FGIJ1LORWXYZ/HB1

Departure

Time 2026-04-16 21:17
Airport Düsseldorf Airport (EDDL)

Arrival

Time 2026-04-16 21:53
Airport Frankfurt Main Airport (EDDF)
Time Latitude Longitude Altitude Speed Heading
2026-04-16 20:11 51.28154 6.76737 128 ft 0 kts 276°
2026-04-16 20:11 51.28155 6.76728 127 ft 0 kts 276°
2026-04-16 21:04 51.28153 6.76752 127 ft 4 kts 280°
2026-04-16 21:04 51.28147 6.76792 127 ft 4 kts 297°
2026-04-16 21:04 51.28132 6.76821 129 ft 4 kts 351°
2026-04-16 21:04 51.28111 6.76815 128 ft 4 kts 18°
2026-04-16 21:05 51.28096 6.76807 129 ft 0 kts 18°
2026-04-16 21:11 51.28109 6.76814 128 ft 4 kts 17°
2026-04-16 21:11 51.28130 6.76823 131 ft 0 kts 13°
2026-04-16 21:11 51.28175 6.76835 131 ft 11 kts
2026-04-16 21:12 51.28248 6.76850 130 ft 10 kts
2026-04-16 21:12 51.28321 6.76885 126 ft 13 kts 39°
2026-04-16 21:12 51.28383 6.77006 125 ft 15 kts 51°
2026-04-16 21:12 51.28452 6.77149 127 ft 17 kts 54°
2026-04-16 21:13 51.28527 6.77317 127 ft 20 kts 56°
2026-04-16 21:13 51.28614 6.77507 127 ft 22 kts 52°
2026-04-16 21:13 51.28659 6.77689 129 ft 16 kts 86°
2026-04-16 21:13 51.28721 6.77844 127 ft 18 kts 54°
2026-04-16 21:14 51.28800 6.78014 130 ft 20 kts 52°
2026-04-16 21:14 51.28892 6.78204 126 ft 23 kts 53°
2026-04-16 21:14 51.28989 6.78235 128 ft 15 kts 324°
2026-04-16 21:14 51.29078 6.78204 133 ft 12 kts
2026-04-16 21:15 51.29146 6.78210 137 ft 9 kts
2026-04-16 21:15 51.29209 6.78266 139 ft 10 kts 36°
2026-04-16 21:15 51.29284 6.78353 143 ft 24 kts 36°
2026-04-16 21:15 51.29419 6.78468 149 ft 20 kts 359°
2026-04-16 21:16 51.29475 6.78383 151 ft 11 kts 243°
2026-04-16 21:16 51.29465 6.78357 149 ft 0 kts 235°
2026-04-16 21:17 51.29401 6.78217 146 ft 54 kts 233°
2026-04-16 21:17 51.29011 6.77397 126 ft 127 kts 232°
2026-04-16 21:17 51.28384 6.76093 436 ft 156 kts 232°
2026-04-16 21:17 51.27701 6.74726 1164 ft 159 kts 231°
2026-04-16 21:18 51.26986 6.73345 1877 ft 165 kts 230°
2026-04-16 21:18 51.26234 6.71922 2614 ft 169 kts 229°
2026-04-16 21:18 51.25459 6.70487 3380 ft 171 kts 229°
2026-04-16 21:18 51.24669 6.69056 4125 ft 174 kts 228°
2026-04-16 21:19 51.23846 6.67532 4636 ft 192 kts 230°
2026-04-16 21:19 51.22902 6.65759 4783 ft 229 kts 227°
2026-04-16 21:19 51.21684 6.63880 5080 ft 262 kts 217°
2026-04-16 21:19 51.19977 6.62828 4955 ft 269 kts 186°
2026-04-16 21:20 51.18103 6.62930 4875 ft 271 kts 172°
2026-04-16 21:20 51.16265 6.63549 4862 ft 271 kts 159°
2026-04-16 21:20 51.14719 6.65264 4880 ft 275 kts 133°
2026-04-16 21:20 51.13648 6.67850 5628 ft 283 kts 113°
2026-04-16 21:21 51.13179 6.70883 6797 ft 284 kts 93°
2026-04-16 21:21 51.13202 6.74051 7777 ft 288 kts 88°
2026-04-16 21:21 51.13300 6.77255 8719 ft 292 kts 87°
2026-04-16 21:21 51.13428 6.80498 9632 ft 296 kts 86°
2026-04-16 21:22 51.13567 6.83801 10447 ft 304 kts 86°
2026-04-16 21:22 51.13711 6.87291 10758 ft 327 kts 86°
2026-04-16 21:22 51.13857 6.90975 11286 ft 339 kts 86°
2026-04-16 21:22 51.14002 6.94759 11987 ft 344 kts 87°
2026-04-16 21:23 51.14140 6.98532 12687 ft 349 kts 87°
2026-04-16 21:23 51.14277 7.02414 13384 ft 353 kts 87°
2026-04-16 21:23 51.14414 7.06330 14041 ft 357 kts 87°
2026-04-16 21:23 51.14350 7.10292 14603 ft 360 kts 98°
2026-04-16 21:24 51.13827 7.14205 15150 ft 364 kts 104°
2026-04-16 21:24 51.13208 7.18137 15688 ft 367 kts 104°
2026-04-16 21:24 51.12452 7.22043 16193 ft 370 kts 113°
2026-04-16 21:24 51.11217 7.25627 16686 ft 373 kts 126°
2026-04-16 21:25 51.09508 7.28755 17166 ft 376 kts 138°
2026-04-16 21:25 51.07406 7.31242 17650 ft 378 kts 149°
2026-04-16 21:25 51.05150 7.33420 18125 ft 381 kts 149°
2026-04-16 21:25 51.02882 7.35622 18579 ft 384 kts 149°
2026-04-16 21:26 51.00596 7.37847 18959 ft 387 kts 149°
2026-04-16 21:26 50.98304 7.40082 19334 ft 382 kts 149°
2026-04-16 21:26 50.96107 7.42227 19432 ft 364 kts 149°
2026-04-16 21:26 50.94004 7.44279 19188 ft 355 kts 149°
2026-04-16 21:27 50.91913 7.46308 18957 ft 350 kts 149°
2026-04-16 21:27 50.89842 7.48308 18731 ft 348 kts 149°
2026-04-16 21:27 50.87781 7.50296 18479 ft 346 kts 149°
2026-04-16 21:27 50.85727 7.52284 18206 ft 345 kts 149°
2026-04-16 21:28 50.83690 7.54259 17949 ft 343 kts 149°
2026-04-16 21:28 50.81661 7.56226 17678 ft 341 kts 149°
2026-04-16 21:28 50.79644 7.58176 17410 ft 340 kts 149°
2026-04-16 21:28 50.77569 7.59952 17155 ft 338 kts 157°
2026-04-16 21:29 50.75407 7.61388 16908 ft 336 kts 158°
2026-04-16 21:29 50.73258 7.62813 16644 ft 335 kts 158°
2026-04-16 21:29 50.71114 7.64239 16384 ft 333 kts 158°
2026-04-16 21:29 50.68982 7.65660 16133 ft 332 kts 158°
2026-04-16 21:30 50.66863 7.67070 15884 ft 330 kts 158°
2026-04-16 21:30 50.64746 7.68476 15637 ft 329 kts 158°
2026-04-16 21:30 50.62643 7.69872 15391 ft 327 kts 158°
2026-04-16 21:30 50.60550 7.71261 15135 ft 326 kts 158°
2026-04-16 21:31 50.58467 7.72640 14891 ft 324 kts 158°
2026-04-16 21:31 50.56391 7.74011 14649 ft 323 kts 158°
2026-04-16 21:31 50.54324 7.75376 14412 ft 321 kts 158°
2026-04-16 21:31 50.52268 7.76734 14175 ft 320 kts 158°
2026-04-16 21:32 50.50220 7.78087 13925 ft 319 kts 158°
2026-04-16 21:32 50.48180 7.79437 13661 ft 317 kts 158°
2026-04-16 21:32 50.46151 7.80777 13404 ft 316 kts 158°
2026-04-16 21:32 50.44139 7.82135 13136 ft 314 kts 154°
2026-04-16 21:33 50.42316 7.83985 12902 ft 313 kts 142°
2026-04-16 21:33 50.40611 7.86107 12639 ft 312 kts 142°
2026-04-16 21:33 50.38913 7.88216 12339 ft 311 kts 142°
2026-04-16 21:33 50.37227 7.90307 12029 ft 309 kts 142°
2026-04-16 21:34 50.35541 7.92394 11722 ft 307 kts 142°
2026-04-16 21:34 50.33874 7.94460 11434 ft 306 kts 142°
2026-04-16 21:34 50.32205 7.96526 11151 ft 304 kts 142°
2026-04-16 21:34 50.30549 7.98570 10866 ft 303 kts 142°
2026-04-16 21:35 50.28901 8.00608 10589 ft 301 kts 142°
2026-04-16 21:35 50.27262 8.02631 10312 ft 300 kts 142°
2026-04-16 21:35 50.25783 8.04901 10161 ft 299 kts 129°
2026-04-16 21:35 50.24515 8.07477 10164 ft 299 kts 128°
2026-04-16 21:36 50.23248 8.10058 10168 ft 299 kts 128°
2026-04-16 21:36 50.21979 8.12636 10169 ft 299 kts 128°
2026-04-16 21:36 50.20710 8.15209 10167 ft 299 kts 128°
2026-04-16 21:36 50.19440 8.17784 10168 ft 299 kts 128°
2026-04-16 21:37 50.18187 8.20323 10163 ft 299 kts 128°
2026-04-16 21:37 50.16917 8.22891 10164 ft 299 kts 128°
2026-04-16 21:37 50.15642 8.25458 10161 ft 299 kts 128°
2026-04-16 21:37 50.14366 8.28024 10165 ft 299 kts 128°
2026-04-16 21:38 50.13092 8.30592 10168 ft 299 kts 128°
2026-04-16 21:38 50.12032 8.33359 10156 ft 300 kts 111°
2026-04-16 21:38 50.11638 8.36541 10152 ft 300 kts 89°
2026-04-16 21:38 50.11823 8.38716 10158 ft 301 kts 75°
2026-04-16 21:39 50.12444 8.41826 10148 ft 302 kts 72°
2026-04-16 21:39 50.13088 8.44924 9852 ft 299 kts 72°
2026-04-16 21:39 50.13731 8.47994 9429 ft 297 kts 72°
2026-04-16 21:39 50.14373 8.51044 9008 ft 295 kts 72°
2026-04-16 21:40 50.14999 8.54035 8601 ft 293 kts 72°
2026-04-16 21:40 50.15624 8.57042 8193 ft 291 kts 72°
2026-04-16 21:40 50.16241 8.60031 7783 ft 289 kts 72°
2026-04-16 21:40 50.16865 8.63047 7368 ft 287 kts 72°
2026-04-16 21:41 50.17464 8.65956 7060 ft 285 kts 72°
2026-04-16 21:41 50.18071 8.68906 6792 ft 284 kts 72°
2026-04-16 21:41 50.18664 8.71794 6520 ft 276 kts 72°
2026-04-16 21:41 50.19240 8.74609 6234 ft 269 kts 72°
2026-04-16 21:42 50.19803 8.77360 5949 ft 263 kts 72°
2026-04-16 21:42 50.20351 8.80041 5664 ft 256 kts 72°
2026-04-16 21:42 50.20887 8.82664 5389 ft 251 kts 72°
2026-04-16 21:42 50.21412 8.85230 5137 ft 245 kts 72°
2026-04-16 21:43 50.21925 8.87753 4933 ft 244 kts 72°
2026-04-16 21:43 50.22434 8.90262 4819 ft 241 kts 72°
2026-04-16 21:43 50.22940 8.92756 4819 ft 242 kts 72°
2026-04-16 21:43 50.23451 8.95266 4820 ft 242 kts 72°
2026-04-16 21:44 50.23963 8.97770 4817 ft 242 kts 72°
2026-04-16 21:44 50.24517 9.00254 4822 ft 242 kts 70°
2026-04-16 21:44 50.24909 9.02789 4815 ft 241 kts 91°
2026-04-16 21:44 50.24475 9.05278 4820 ft 239 kts 123°
2026-04-16 21:45 50.23276 9.07021 4823 ft 238 kts 155°
2026-04-16 21:45 50.21679 9.07500 4820 ft 236 kts 187°
2026-04-16 21:45 50.20170 9.06585 4822 ft 236 kts 217°
2026-04-16 21:45 50.18912 9.04946 4826 ft 237 kts 221°
2026-04-16 21:46 50.17662 9.03269 4819 ft 237 kts 221°
2026-04-16 21:46 50.16416 9.01589 4819 ft 237 kts 222°
2026-04-16 21:46 50.15212 8.99837 4821 ft 237 kts 224°
2026-04-16 21:46 50.14021 8.98066 4821 ft 237 kts 224°
2026-04-16 21:47 50.12842 8.96308 4815 ft 229 kts 224°
2026-04-16 21:47 50.11934 8.94403 4797 ft 215 kts 251°
2026-04-16 21:47 50.11802 8.92126 4556 ft 213 kts 274°
2026-04-16 21:47 50.11887 8.89886 4537 ft 200 kts 271°
2026-04-16 21:48 50.11997 8.87755 4552 ft 196 kts 278°
2026-04-16 21:48 50.12011 8.85651 4554 ft 195 kts 261°
2026-04-16 21:48 50.11697 8.83602 4554 ft 194 kts 252°
2026-04-16 21:48 50.11268 8.81606 4556 ft 194 kts 250°
2026-04-16 21:49 50.10809 8.79623 4510 ft 196 kts 250°
2026-04-16 21:49 50.10328 8.77576 4018 ft 209 kts 249°
2026-04-16 21:49 50.09832 8.75475 3597 ft 208 kts 249°
2026-04-16 21:49 50.09339 8.73391 3249 ft 197 kts 249°
2026-04-16 21:50 50.08878 8.71444 2977 ft 192 kts 249°
2026-04-16 21:50 50.08421 8.69514 2710 ft 188 kts 249°
2026-04-16 21:50 50.07972 8.67621 2445 ft 182 kts 249°
2026-04-16 21:50 50.07552 8.65850 2184 ft 167 kts 249°
2026-04-16 21:51 50.07163 8.64213 1955 ft 156 kts 249°
2026-04-16 21:51 50.06796 8.62667 1718 ft 156 kts 249°
2026-04-16 21:51 50.06417 8.61052 1455 ft 156 kts 250°
2026-04-16 21:51 50.06056 8.59507 1190 ft 150 kts 249°
2026-04-16 21:52 50.05682 8.58027 973 ft 143 kts 249°
2026-04-16 21:52 50.05367 8.56587 759 ft 140 kts 250°
2026-04-16 21:52 50.05024 8.55179 625 ft 139 kts 248°
2026-04-16 21:52 50.04682 8.53776 465 ft 137 kts 249°
2026-04-16 21:53 50.04356 8.52417 353 ft 128 kts 250°
2026-04-16 21:53 50.04089 8.51303 327 ft 87 kts 250°
2026-04-16 21:53 50.03933 8.50659 323 ft 49 kts 249°
2026-04-16 21:53 50.03805 8.50338 318 ft 31 kts 226°
2026-04-16 21:54 50.03755 8.50268 319 ft 5 kts 219°
2026-04-16 21:54 50.03706 8.50205 319 ft 7 kts 219°
2026-04-16 21:54 50.03696 8.50194 319 ft 0 kts 217°
2026-04-16 21:54 50.03696 8.50193 319 ft 1 kts 217°
2026-04-16 21:55 50.03643 8.50190 322 ft 8 kts 148°
2026-04-16 21:55 50.03629 8.50258 324 ft 7 kts 89°
2026-04-16 21:55 50.03644 8.50349 324 ft 11 kts 71°
2026-04-16 21:55 50.03668 8.50450 325 ft 9 kts 67°
2026-04-16 21:56 50.03687 8.50527 327 ft 9 kts 74°
2026-04-16 21:56 50.03714 8.50645 328 ft 15 kts 69°
2026-04-16 21:56 50.03759 8.50832 332 ft 19 kts 70°
2026-04-16 21:56 50.03808 8.51038 334 ft 21 kts 69°
2026-04-16 21:57 50.03863 8.51267 334 ft 24 kts 69°
2026-04-16 21:57 50.03925 8.51522 332 ft 26 kts 70°
2026-04-16 21:57 50.03990 8.51801 336 ft 28 kts 70°
2026-04-16 21:57 50.04060 8.52093 337 ft 29 kts 69°
2026-04-16 21:58 50.04132 8.52390 351 ft 29 kts 69°
2026-04-16 21:58 50.04202 8.52689 353 ft 30 kts 70°
2026-04-16 21:58 50.04277 8.52991 360 ft 30 kts 69°
2026-04-16 21:58 50.04348 8.53289 367 ft 28 kts 70°
2026-04-16 21:59 50.04398 8.53560 375 ft 26 kts 83°
2026-04-16 21:59 50.04416 8.53847 375 ft 28 kts 84°
2026-04-16 21:59 50.04438 8.54165 375 ft 30 kts 84°
2026-04-16 21:59 50.04450 8.54503 368 ft 32 kts 103°
2026-04-16 22:00 50.04351 8.54738 359 ft 27 kts 141°
2026-04-16 22:00 50.04192 8.54842 360 ft 26 kts 161°
2026-04-16 22:00 50.04053 8.54918 354 ft 16 kts 160°
2026-04-16 22:00 50.04023 8.55033 353 ft 12 kts 71°
2026-04-16 22:01 50.04059 8.55188 359 ft 22 kts 70°
2026-04-16 22:01 50.04116 8.55432 358 ft 26 kts 69°
2026-04-16 22:01 50.04182 8.55704 353 ft 28 kts 71°
2026-04-16 22:01 50.04247 8.55976 359 ft 20 kts 69°
2026-04-16 22:02 50.04319 8.56067 362 ft 14 kts 354°
2026-04-16 22:02 50.04417 8.56035 360 ft 15 kts 16°
2026-04-16 22:02 50.04469 8.56187 356 ft 18 kts 70°
2026-04-16 22:02 50.04515 8.56381 363 ft 21 kts 70°
2026-04-16 22:03 50.04610 8.56481 363 ft 11 kts 22°
2026-04-16 22:03 50.04665 8.56525 361 ft 7 kts 45°
2026-04-16 22:03 50.04661 8.56583 360 ft 5 kts 111°
2026-04-16 22:03 50.04647 8.56630 362 ft 3 kts 115°
2026-04-16 22:04 50.04639 8.56656 358 ft 2 kts 114°
2026-04-16 22:04 50.04638 8.56662 357 ft 0 kts 114°